[TLELIST] Archives

 

[list_settings.list_name] Current TLEs

January 22nd 2022 PDT

HST 1 20580U 90037B 22021.80480639 .00001401 00000-0 73261-4 0 9998 2 20580 28.4711 60.0269 0002348 253.1051 274.4471 15.09959465544024 ISS (ZARYA) 1 25544U 98067A 22022.21725874 -.00000457 00000-0 00000+0 0 9990 2 25544 51.6450 339.4639 0006743 47.7199 88.2449 15.49577997322541 CXO 1 25867U 99040B 22022.60472835 .00000595 00000-0 00000+0 0 9991 2 25867 49.4084 244.6668 8643160 229.4147 0.2789 0.37814519 22404 ____________________________________________________________________ These 2-Line ...Continue Reading

[list_settings.list_name] Current TLEs

January 21st 2022 PDT

HST 1 20580U 90037B 22021.18838866 .00001468 00000-0 77279-4 0 9994 2 20580 28.4710 64.1073 0002362 245.6684 164.4825 15.09958017544196 ISS (ZARYA) 1 25544U 98067A 22021.11265549 -.00060239 00000-0 -10723-2 0 9997 2 25544 51.6423 344.9290 0006791 43.3864 46.4901 15.49530317322374 CXO 1 25867U 99040B 22022.60472835 .00000595 00000-0 00000+0 0 9991 2 25867 49.4084 244.6668 8643160 229.4147 0.2789 0.37814519 22404 ____________________________________________________________________ These 2-Line ...Continue Reading

[list_settings.list_name] Current TLEs

January 20th 2022 PDT

HST 1 20580U 90037B 22019.61743372 .00001719 00000-0 92331-4 0 9991 2 20580 28.4709 74.5064 0002399 227.4172 266.3383 15.09954939543693 ISS (ZARYA) 1 25544U 98067A 22020.22939815 .00004298 00000-0 84466-4 0 9990 2 25544 51.6440 349.3016 0006876 41.0298 158.4181 15.49575153322234 CXO 1 25867U 99040B 22019.95968920 .00000572 00000-0 00000-0 0 9996 2 25867 49.5058 244.8627 8640971 229.3121 0.2717 0.37808965 11239 ____________________________________________________________________ These 2-Line ...Continue Reading

[list_settings.list_name] Current TLEs

January 19th 2022 PDT

HST 1 20580U 90037B 22018.89576547 .00001634 00000-0 87266-4 0 9995 2 20580 28.4708 79.2835 0002425 219.2183 303.8882 15.09952212543582 ISS (ZARYA) 1 25544U 98067A 22019.38410043 .00005522 00000-0 10629-3 0 9992 2 25544 51.6455 353.4851 0006651 38.5316 122.3985 15.49547135322103 CXO 1 25867U 99040B 22019.95968920 .00000572 00000-0 00000-0 0 9996 2 25867 49.5058 244.8627 8640971 229.3121 0.2717 0.37808965 11239 ____________________________________________________________________ These 2-Line ...Continue Reading

[list_settings.list_name] Current TLEs

January 18th 2022 PDT

HST 1 20580U 90037B 22017.90427381 .00001611 00000-0 85885-4 0 9997 2 20580 28.4707 85.8468 0002465 208.0449 314.8024 15.09949368543433 ISS (ZARYA) 1 25544U 98067A 22018.41166174 .00006095 00000-0 11651-3 0 9990 2 25544 51.6450 358.2975 0006740 34.5699 98.1779 15.49536257321953 CXO 1 25867U 99040B 22019.95968920 .00000572 00000-0 00000-0 0 9996 2 25867 49.5058 244.8627 8640971 229.3121 0.2717 0.37808965 11239 ____________________________________________________________________ These 2-Line ...Continue Reading

[list_settings.list_name] Current TLEs

January 17th 2022 PDT

HST 1 20580U 90037B 22016.91285301 .00001604 00000-0 85463-4 0 9995 2 20580 28.4705 92.4095 0002520 196.9082 326.0767 15.09946790543289 ISS (ZARYA) 1 25544U 98067A 22017.05238103 .00012676 00000-0 23344-3 0 9995 2 25544 51.6436 5.0305 0006458 29.0373 76.2381 15.49527213321740 CXO 1 25867U 99040B 22014.66923885 .00000312 00000-0 00000-0 0 9992 2 25867 49.6445 245.1696 8634766 229.1546 0.1816 0.37804926 11225 ____________________________________________________________________ These 2-Line ...Continue Reading

[list_settings.list_name] Current TLEs

January 16th 2022 PDT

HST 1 20580U 90037B 22015.64890072 .00001401 00000-0 73270-4 0 9999 2 20580 28.4703 100.7764 0002592 182.8957 295.8710 15.09942563543091 ISS (ZARYA) 1 25544U 98067A 22016.14803302 -.00080336 00000-0 -14398-2 0 9991 2 25544 51.6417 9.5098 0006905 28.3111 68.9326 15.49462854321607 CXO 1 25867U 99040B 22014.66923885 .00000312 00000-0 00000-0 0 9992 2 25867 49.6445 245.1696 8634766 229.1546 0.1816 0.37804926 11225 ____________________________________________________________________ These 2-Line ...Continue Reading

[list_settings.list_name] Current TLEs

January 15th 2022 PDT

HST 1 20580U 90037B 22014.65679293 .00001204 00000-0 61456-4 0 9993 2 20580 28.4702 107.3437 0002639 172.2983 302.8869 15.09939446542947 ISS (ZARYA) 1 25544U 98067A 22015.23264095 .00002651 00000-0 55370-4 0 9999 2 25544 51.6460 14.0363 0006544 24.2244 3.4233 15.49490322321468 CXO 1 25867U 99040B 22014.66923885 .00000312 00000-0 00000-0 0 9992 2 25867 49.6445 245.1696 8634766 229.1546 0.1816 0.37804926 11225 ____________________________________________________________________ These 2-Line ...Continue Reading

[list_settings.list_name] Current TLEs

January 14th 2022 PDT

HST 1 20580U 90037B 22013.66468385 .00001032 00000-0 51094-4 0 9997 2 20580 28.4701 113.9109 0002679 161.8858 309.7220 15.09936771542792 ISS (ZARYA) 1 25544U 98067A 22014.20078024 -.00001581 00000-0 -20061-4 0 9992 2 25544 51.6452 19.1428 0006828 17.5887 10.3753 15.49476744321309 CXO 1 25867U 99040B 22014.66923885 .00000312 00000-0 00000-0 0 9992 2 25867 49.6445 245.1696 8634766 229.1546 0.1816 0.37804926 11225 ____________________________________________________________________ These 2-Line ...Continue Reading

[list_settings.list_name] Current TLEs

January 13th 2022 PDT

HST 1 20580U 90037B 22012.59030013 .00000972 00000-0 47489-4 0 9996 2 20580 28.4699 121.0228 0002723 150.7629 229.1628 15.09934726542631 ISS (ZARYA) 1 25544U 98067A 22013.32564815 -.00056608 00000-0 -10098-2 0 9999 2 25544 51.6463 23.4757 0006714 13.2288 169.9125 15.49445791321162 CXO 1 25867U 99040B 22014.66923885 .00000312 00000-0 00000-0 0 9992 2 25867 49.6445 245.1696 8634766 229.1546 0.1816 0.37804926 11225 ____________________________________________________________________ These 2-Line ...Continue Reading
  • This mailing list is a public mailing list - anyone may join or leave, at any time.
  • This mailing list is announce-only.

International Space Station (ISS) / Hubble Space Telescope (HST) / Chandra X-Ray Observatory Orbital Data via EMAIL

Privacy Policy:

Private list